sat.trackr.live / text

‹ back to catalog

STARLINK-36297

NORAD 67671 · 2026-022Z

PAYLOAD ACTIVE UNKNOWN

§ Identity

Operator
Country
US
Launch date
2026-02-02
Launch site
AFWTR
Launch vehicle
Mass (kg)
RCS (m²)

Purposes: comms

External: N2YO · Heavens-Above · Gunter

§ Orbital elements

Epoch: 2026-05-25T01:50:00.995424Z

Period
93.91 min
Inclination
97.2832°
Eccentricity
0.0001145
Mean motion
15.33455788 rev/d
Perigee alt
464.7 km
Apogee alt
466.3 km
Semi-major
6,843.6 km
B*
3.6217e-4
RAAN
178.4020°
Arg perigee
85.6304°
Mean anomaly
274.5069°
Rev number
1,728

§ Raw data

STARLINK-362971 67671U 26022Z   26145.07640041  .00011639  00000+0  36217-3 0  99902 67671  97.2832 178.4020 0001145  85.6304 274.5069 15.33455788 17289

JSON: /api/v1/satellites/67671 · /tle

For live sub-satellite position, see the globe view (requires WebGL).

§ Visibility from observer

Set your observer location to see the next 7 days of passes ≥ 10°. The values pass through the URL so the page stays shareable.

No JS? Fill the form by hand. The geolocation button needs JavaScript.